Temp
51 50 52 52 51 51 50 49 49 49 49 49 49 47 42 41 41 40 39 39 39 38
51 51 52 52 52 50 49 50 49 48 48 48 47 44 42 40 40 39 39 39 38 39
54 54 53 52 50 50 50 50 49 48 48 47 46 44 41 40 41 41 38 38 38 37
49 49 50 52 52 52 51 50 50 49 47 45 44 44 42 41 40 39 38 37 37 37
49 50 52 52 51 50 50 49 48 46 45 44 44 44 41 39 40 39 37 38 38 38
50 52 52 51 50 48 45 45 45 44 43 44 44 44 42 40 39 37 37 37 37 36
51 52 52 52 49 48 46 45 45 45 45 44 43 42 42 41 38 37 37 37 36 36
52 52 51 48 47 46 46 46 46 46 45 44 43 43 40 39 37 36 35 35 35 34
50 47 46 46 45 45 44 45 45 44 43 42 43 41 40 38 35 35 33 32 32 33
46 45 45 45 44 43 42 42 41 41 42 41 40 40 39 38 34 33 32 31 31 32
44 44 44 43 42 40 40 40 40 40 40 39 39 39 38 37 33 31 31 31 31 30
43 42 41 40 39 39 39 39 39 39 36 35 34 37 37 35 30 30 31 32 31 31
42 41 39 39 39 39 40 39 37 35 34 34 32 36 37 36 28 29 29 29 30 34
41 40 40 40 40 38 36 34 31 31 31 32 32 32 36 37 31 30 30 29 28 29
MSLP
1019.31 1020.01 1020.55 1021.36 1022.10 1022.61 1023.21 1023.80 1023.92 1024.19 1024.35 1024.91 1025.15 1025.37 1025.78 1025.95 1025.91 1025.86 1026.05 1026.16 1026.27 1026.17
1018.96 1019.75 1020.43 1021.30 1021.98 1022.60 1023.10 1023.36 1023.71 1023.97 1024.41 1024.87 1025.05 1025.23 1025.51 1025.70 1025.51 1025.61 1025.91 1025.96 1025.92 1025.88
1018.45 1019.15 1019.81 1020.51 1021.22 1021.69 1022.27 1022.71 1023.32 1023.69 1023.86 1024.22 1024.63 1024.80 1025.10 1025.37 1025.10 1025.29 1025.27 1025.25 1025.33 1025.36
1018.43 1019.13 1019.91 1020.48 1020.97 1021.28 1021.54 1022.23 1022.68 1022.85 1023.36 1023.98 1024.21 1024.48 1024.76 1024.93 1024.92 1025.07 1025.13 1025.09 1025.13 1025.22
1018.49 1019.13 1019.74 1020.15 1020.61 1020.99 1021.47 1021.84 1022.22 1022.83 1023.44 1023.78 1023.97 1023.99 1024.17 1024.35 1024.40 1024.52 1024.72 1024.95 1024.89 1024.87
1018.55 1018.90 1019.32 1019.75 1020.07 1020.53 1021.02 1021.59 1022.26 1022.76 1023.12 1023.38 1023.60 1023.68 1023.85 1023.93 1023.98 1024.11 1024.30 1024.42 1024.55 1024.60
1018.12 1018.30 1018.74 1019.27 1019.81 1020.59 1021.17 1021.90 1022.28 1022.52 1022.88 1023.10 1023.08 1023.23 1023.31 1023.46 1023.63 1023.80 1024.02 1024.12 1024.17 1024.24
1017.77 1018.08 1018.70 1019.44 1020.15 1020.87 1021.71 1022.13 1022.44 1022.78 1022.93 1022.77 1022.94 1022.83 1022.87 1023.11 1023.27 1023.44 1023.78 1023.90 1023.99 1024.06
1018.62 1019.49 1020.19 1020.56 1021.06 1021.77 1022.16 1022.37 1022.77 1023.13 1022.90 1022.65 1022.42 1022.29 1022.33 1022.59 1022.95 1023.25 1023.53 1023.71 1023.76 1023.83
1019.08 1019.65 1020.31 1021.19 1021.67 1021.98 1022.28 1022.88 1023.07 1022.93 1022.76 1022.55 1022.29 1022.08 1022.03 1022.21 1022.65 1023.01 1023.15 1023.27 1023.38 1023.51
1019.67 1020.55 1021.25 1021.44 1021.74 1022.49 1022.66 1022.64 1022.56 1022.59 1022.53 1022.37 1022.07 1021.84 1021.81 1021.93 1022.21 1022.58 1022.77 1022.88 1022.94 1023.02
1020.71 1021.04 1021.58 1021.91 1022.31 1022.51 1022.44 1022.23 1022.22 1022.30 1022.33 1022.22 1021.95 1021.65 1021.51 1021.69 1021.88 1022.13 1022.26 1022.32 1022.38 1022.44
1021.39 1021.71 1021.75 1022.26 1022.39 1022.38 1022.25 1022.12 1022.12 1022.16 1022.12 1022.00 1021.80 1021.42 1021.25 1021.43 1021.56 1021.97 1022.03 1021.92 1021.84 1021.84
1021.43 1021.82 1022.05 1022.19 1022.16 1022.11 1022.11 1022.11 1022.13 1022.12 1021.93 1021.75 1021.55 1021.20 1020.99 1021.06 1021.27 1021.30 1021.35 1021.43 1021.36 1021.28
Wind_Speed
8 5 5 6 7 7 5 4 6 5 5 4 3 2 1 1 3 4 4 6 5 3
10 10 10 8 7 5 7 6 5 6 6 5 4 4 4 3 4 4 3 5 5 3
12 11 11 11 12 12 9 8 8 7 7 6 6 6 5 4 3 4 4 3 4 3
8 8 9 10 10 10 9 10 9 9 7 6 6 5 4 4 4 5 4 3 4 5
9 9 10 10 10 9 10 8 7 7 6 6 6 5 6 6 5 6 5 5 4 4
9 10 11 10 10 10 8 7 6 6 7 6 6 6 6 6 6 6 6 6 5 4
12 12 11 10 8 6 5 5 5 5 5 6 7 6 6 6 6 6 5 5 5 5
9 7 6 5 5 6 5 4 3 1 6 6 5 5 6 6 6 6 5 4 5 5
7 8 9 9 9 7 6 6 7 5 5 6 4 8 10 8 6 6 6 6 5 5
11 12 11 9 8 6 6 2 3 5 5 6 6 8 10 11 6 6 6 6 5 4
13 11 8 7 6 4 1 2 4 5 6 6 6 9 10 11 6 6 6 6 6 6
8 7 5 5 3 3 3 5 4 3 5 5 7 8 11 9 6 6 7 6 6 6
7 6 5 3 2 4 4 4 2 5 5 6 7 9 12 11 4 5 5 5 6 11
6 4 3 5 4 4 5 3 4 5 6 6 6 7 12 14 6 7 6 6 5 5
Wind_Direction
143 148 143 139 142 143 140 137 138 121 99 125 146 115 144 221 235 209 209 220 223 228
147 154 151 146 137 132 135 143 130 143 150 170 178 198 210 222 227 186 210 227 234 232
154 151 146 149 153 157 155 151 169 172 169 175 201 208 207 208 187 212 227 226 243 256
140 144 147 157 164 162 157 172 179 183 165 189 207 203 187 220 238 239 252 253 246 261
153 155 167 171 172 172 174 185 175 158 175 206 209 203 207 222 223 214 218 220 204 235
170 177 181 179 180 178 176 173 168 162 195 207 225 231 227 224 219 208 211 207 205 212
190 188 186 188 182 170 147 146 164 193 212 230 239 232 234 208 197 194 204 214 203 206
195 177 166 124 114 107 119 135 96 188 254 256 253 230 219 198 191 190 192 198 204 200
85 61 59 78 90 80 75 58 22 308 302 283 248 238 210 185 189 192 193 203 215 213
101 98 98 98 81 78 69 18 290 302 297 292 277 247 219 194 189 197 203 204 204 215
97 92 84 86 97 96 122 277 283 274 283 286 284 258 227 201 195 205 212 206 206 208
86 92 89 97 41 14 291 254 253 272 309 312 294 277 227 196 195 206 217 211 208 206
83 86 71 61 295 252 251 268 266 290 289 284 289 281 240 215 182 213 224 222 222 226
103 132 182 224 244 262 256 258 284 280 278 281 272 280 260 230 207 225 222 218 217 219